Location: *
(48.8667°N, 2.3331°E)
Time: 03:51:39
(UTC+00:00)

Cosmos 2082 Rocket - Pass Details

Date: 09 April 2020
Orbit: 832 x 855 km, 71.0° (Epoch: 04 June)

Event Time Altitude Azimuth Distance (km) Brightness Sun altitude
Exits shadow 22:15:05 64° 33° (NNE) 927 2.4 -29.3°
Drops below altitude 10° 22:19:52 10° 29° (NNE) 2,472 5.0 -29.6°
Sets 22:22:19 0° 29° (NNE) 3,415 5.8 -29.8°
